TOM73A EGNT-GCTS

Flight info

Callsign TOM73A
Flight time N/A
Altitude 33000
Route GIRLI P18 GASKO P16 RIBEL UP16 NOKIN N862 KARNO/N0444F340 DCT KISWO DCT INFEC DCT UNFIT DCT TALIG/N0456F350 DCT KORUL DCT DEMOS DCT BEXAL UN866 KUBIL/N0451F370 UN866 KONBA
Aircraft B738/M-SDE2E3FGHIRWXY/LB1

Departure

Time 2026-05-04 11:10
Airport Newcastle International Airport (EGNT)

Arrival

Time N/A
Airport Tenerife Sur Airport (GCTS)
Time Latitude Longitude Altitude Speed Heading
2026-05-04 10:49 55.03661 -1.70779 266 ft 0 kts
2026-05-04 10:59 55.03657 -1.70780 266 ft 3 kts
2026-05-04 10:59 55.03631 -1.70783 266 ft 3 kts
2026-05-04 11:00 55.03608 -1.70792 266 ft 4 kts 43°
2026-05-04 11:01 55.03600 -1.70852 266 ft 0 kts 94°
2026-05-04 11:05 55.03591 -1.70138 263 ft 12 kts 92°
2026-05-04 11:06 55.03587 -1.69990 261 ft 11 kts 93°
2026-05-04 11:06 55.03573 -1.69884 260 ft 0 kts 131°
2026-05-04 11:06 55.03568 -1.69881 260 ft 2 kts 154°
2026-05-04 11:06 55.03548 -1.69909 260 ft 7 kts 243°
2026-05-04 11:08 55.03530 -1.69964 261 ft 87 kts 65°
2026-05-04 11:10 55.05992 -1.56747 3734 ft 217 kts 109°
2026-05-04 11:12 54.94604 -1.56111 7950 ft 281 kts 210°
2026-05-04 11:12 54.92906 -1.57896 8716 ft 282 kts 211°
2026-05-04 11:12 54.91244 -1.59642 9445 ft 284 kts 211°
2026-05-04 11:12 54.89549 -1.61412 10168 ft 285 kts 211°
2026-05-04 11:13 54.87804 -1.63222 10496 ft 302 kts 211°
2026-05-04 11:13 54.85938 -1.65148 10665 ft 322 kts 211°
2026-05-04 11:13 54.83951 -1.67189 10878 ft 340 kts 211°
2026-05-04 11:13 54.81880 -1.69309 11377 ft 347 kts 211°
2026-05-04 11:14 54.79793 -1.71442 12050 ft 349 kts 211°
2026-05-04 11:14 54.77694 -1.73586 12755 ft 350 kts 210°
2026-05-04 11:14 54.75587 -1.75736 13429 ft 353 kts 210°
2026-05-04 11:16 54.58886 -1.84200 17299 ft 376 kts 191°
2026-05-04 11:16 54.56300 -1.85022 17852 ft 379 kts 191°
2026-05-04 11:16 54.53699 -1.85850 18375 ft 382 kts 191°
2026-05-04 11:17 54.51071 -1.86677 18839 ft 385 kts 191°
2026-05-04 11:17 54.48422 -1.87505 19333 ft 387 kts 191°
2026-05-04 11:19 54.29540 -1.93411 22530 ft 403 kts 191°
2026-05-04 11:19 54.26770 -1.94276 22951 ft 405 kts 191°
2026-05-04 11:19 54.24052 -1.95554 23351 ft 407 kts 202°
2026-05-04 11:19 54.21521 -1.97709 23752 ft 409 kts 212°